Preview of NWS' New Version of Forecast
This preview is not operational and should not be used for support decisions.

Regional Weather Roundup (RWR)

Issued by National Weather Service (NWS)

                            
000
ASUS46 KPQR 181810
RWROR 

OREGON REGIONAL WEATHER ROUNDUP
NATIONAL WEATHER SERVICE PORTLAND OR
1000 AM PST MON FEB 18 2019

NOTE: "FAIR" INDICATES FEW OR NO CLOUDS BELOW 12,000 FEET WITH
NO SIGNIFICANT WEATHER AND/OR OBSTRUCTIONS TO VISIBILITY.

ORZ001>013-181900-
NORTHWEST OREGON

  
CITY           SKY/WX    TMP DP  RH WIND       PRES   REMARKS
ASTORIA        CLOUDY    39  37  92 CALM      30.42R                  
6HR MIN TEMP:  32; 6HR MAX TEMP:  39; 6HR PCP: TRACE;                

TILLAMOOK      MOSUNNY   37  34  87 CALM      30.45F                  
NEWPORT        CLOUDY    37  37 100 CALM      30.47                   
PORTLAND       FOG       34  33  96 CALM      30.45S VSB 1/4          
6HR MIN TEMP:  28; 6HR MAX TEMP:  34;                                

VANCOUVER WA   CLOUDY    33  32  96 CALM      30.45S FOG              
6HR MIN TEMP:  30; 6HR MAX TEMP:  33;                                

SCAPPOOSE      CLOUDY    34  31  88 CALM      30.45S                  
6HR MIN TEMP:  30; 6HR MAX TEMP:  34;                                

HILLSBORO      CLOUDY    30  30 100 CALM      30.44S FOG              
6HR MIN TEMP:  27; 6HR MAX TEMP:  31;                                

AURORA         CLOUDY    31  31 100 SW3       30.46R FOG              
6HR MIN TEMP:  27; 6HR MAX TEMP:  31;                                

MCMINNVILLE    FOG       32  30  92 E3        30.46R VSB<1/4          
6HR MIN TEMP:  26; 6HR MAX TEMP:  32;                                

SALEM          CLOUDY    34  33  96 CALM      30.45R FOG              
6HR MIN TEMP:  27; 6HR MAX TEMP:  34;                                

CORVALLIS      FOG       32  31  96 CALM      30.47R VSB 1/4          
EUGENE         CLOUDY    35  32  88 SE3       30.46R FOG              
6HR MIN TEMP:  30; 6HR MAX TEMP:  35;                                

$$

ORZ021-028-181900-
SOUTHWEST OREGON

  
CITY           SKY/WX    TMP DP  RH WIND       PRES   REMARKS
NORTH BEND     SUNNY     40  36  86 CALM      30.47R                  
6HR MIN TEMP:  30; 6HR MAX TEMP:  40;                                

BROOKINGS      SUNNY     45  26  47 VRB5      30.38R                  
ROSEBURG       CLOUDY    36  31  82 CALM      30.44R                  
6HR MIN TEMP:  32; 6HR MAX TEMP:  36;                                

SEXTON SUMMIT  CLOUDY    24  24 100 CALM      30.26R                  
6HR MIN TEMP:  22; 6HR MAX TEMP:  25; 6HR PCP: TRACE;                

GRANTS PASS    CLOUDY    30  30 100 CALM      30.43                   
MEDFORD        PTSUNNY   33  28  81 N5        30.39R                  
6HR MIN TEMP:  29; 6HR MAX TEMP:  33;                                

$$

ORZ014>016-041-181900-
COLUMBIA GORGE

  
CITY           SKY/WX    TMP DP  RH WIND       PRES   REMARKS
TROUTDALE      CLOUDY    36  34  92 NE3       30.45S FOG              
6HR MIN TEMP:  32; 6HR MAX TEMP:  36;                                

HOOD RIVER     CLOUDY    34  30  86 CALM      30.42S                  
THE DALLES     CLOUDY    34  33  96 CALM      30.43S FOG              
6HR MIN TEMP:  32; 6HR MAX TEMP:  35; 6HR PCP:  0.03;                

$$

ORZ029>031-041-044-049-050-061>064-502-503-505>511-181900-
EASTERN OREGON

  
CITY           SKY/WX    TMP DP  RH WIND       PRES   REMARKS
MADRAS         NOT AVBL                                               
REDMOND        CLOUDY    31  23  72 N7        30.29R                  
6HR MIN TEMP:  27; 6HR MAX TEMP:  31;                                

BEND           CLOUDY    28  19  69 NW8       30.28S                  
PRINEVILLE     CLOUDY    32  19  59 N8        30.28                   
KLAMATH FALLS  SUNNY     27  19  72 NW8       30.23R                  
6HR MIN TEMP:  14; 6HR MAX TEMP:  28;                                

LAKEVIEW       MIX PCPN  30  19  63 N15       30.17R WCI  19          
HERMISTON      SUNNY     32  20  61 SE3       30.41S                  
6HR MIN TEMP:  20; 6HR MAX TEMP:  32;                                

PENDLETON      SUNNY     28  19  69 S7        30.35S                  
6HR MIN TEMP:  24; 6HR MAX TEMP:  28;                                

JOHN DAY       PTSUNNY   28  17  63 NW9       30.23                   
MEACHAM        CLOUDY    21  16  81 W5        30.21S                  
6HR MIN TEMP:  19; 6HR MAX TEMP:  21; 6HR PCP: TRACE;                

LA GRANDE      MOSUNNY   26  17  68 NW15      30.27F WCI  14          
6HR MIN TEMP:  25; 6HR MAX TEMP:  27; 6HR PCP: TRACE;                

BAKER CITY     CLOUDY    27  17  66 NW18      30.21R WCI  14          
6HR MIN TEMP:  25; 6HR MAX TEMP:  28;                                

BURNS          CLOUDY    25  13  60 W13       30.18R WCI  14          
6HR MIN TEMP:  16; 6HR MAX TEMP:  26;                                

ROME             N/A     25  16  68 CALM      30.13S                  
6HR MIN TEMP:   5; 6HR MAX TEMP:  26;                                

ONTARIO        CLOUDY    35  19  52 NW18      30.22R WCI  24          
6HR MIN TEMP:  30; 6HR MAX TEMP:  35;                                

$$